Location: Hartman Creek State Park
(44.3257°N, 89.2134°W)
Time: 20:36:10
(UTC-05:00)

Terra - Visible Passes

Search period start: 24 April 2015 00:00
Search period end: 04 May 2015 00:00
Orbit: 701 x 704 km, 98.2° (Epoch: 24 April)

Date Brightness Start Highest point End Pass type
(mag) Time Alt. Az. Time Alt. Az. Time Alt. Az.
24 Apr 2.1 22:28:49 51° ENE 22:28:54 51° ENE 22:33:31 10° N visible
25 Apr 4.0 00:07:41 18° W 00:07:41 18° W 00:10:16 10° NW visible
25 Apr 3.6 21:33:10 15° E 21:34:21 17° ENE 21:37:27 10° NNE visible
25 Apr 2.2 23:12:03 60° WNW 23:12:03 60° WNW 23:16:26 10° NNW visible
26 Apr 2.4 22:16:26 38° E 22:16:52 39° ENE 22:21:19 10° N visible
26 Apr 3.6 23:55:19 24° W 23:55:19 24° W 23:58:37 10° NW visible
27 Apr 3.8 21:20:51 11° E 21:22:28 13° ENE 21:24:49 10° NNE visible
27 Apr 1.8 22:59:44 81° W 22:59:44 81° W 23:04:27 10° NNW visible
28 Apr 2.8 22:04:09 29° E 22:04:57 31° ENE 22:09:09 10° N visible
28 Apr 3.2 23:43:02 31° W 23:43:02 31° W 23:46:56 10° NNW visible
29 Apr 4.1 21:10:00 10° ENE 21:10:40 10° ENE 21:11:36 10° NE visible
29 Apr 1.7 22:47:29 75° ESE 22:47:43 77° ENE 22:52:30 10° N visible
30 Apr 4.3 00:26:23 12° W 00:26:23 12° W 00:27:55 10° WNW visible
30 Apr 3.2 21:51:57 22° E 21:53:09 24° ENE 21:57:00 10° NNE visible
30 Apr 2.7 23:30:51 40° W 23:30:51 40° W 23:35:13 10° NNW visible
01 May 1.9 22:35:20 55° ESE 22:35:52 59° ENE 22:40:35 10° N visible
02 May 4.0 00:14:13 16° W 00:14:13 16° W 00:16:57 10° NW visible
02 May 3.5 21:39:50 16° E 21:41:25 19° ENE 21:44:51 10° NNE visible
02 May 2.2 23:18:43 53° WSW 23:18:51 53° W 23:23:32 10° NNW visible
03 May 2.3 22:23:15 41° ESE 22:24:07 46° ENE 22:28:41 10° N visible
